CW1569 Weather Reports


Display with metric or nautical units.
time (UTC)temp
F
wind
direction
speed
MPH
gust
MPH
rain 1hr
in
rain 24hr
in
rain mn
in
humidity
%
barometer
mb
20260507201325 50 360 5.0 10.0 0.01 0.01 0.01 69 1007.2
20260507200833 50 360 2.0 12.0 0.01 0.01 0.01 67 1007.3
20260507200405 50 360 3.0 12.0 0.01 0.01 0.01 67 1007.5
20260507195851 49 360 3.0 8.0 0.00 0.00 0.00 67 1007.8
20260507195339 50 360 3.0 7.0 0.00 0.00 0.00 64 1007.8
20260507194829 50 360 3.0 9.0 0.00 0.00 0.00 63 1007.9
20260507194339 50 360 3.0 9.0 0.00 0.00 0.00 63 1007.9
20260507193825 50 360 4.0 7.0 0.00 0.00 0.00 61 1007.9
20260507193334 50 360 4.0 8.0 0.00 0.00 0.00 62 1008.0
20260507192823 50 360 2.0 10.0 0.00 0.00 0.00 63 1008.1
20260507192333 50 360 3.0 12.0 0.00 0.00 0.00 62 1008.2
20260507191823 50 360 5.0 12.0 0.00 0.00 0.00 64 1008.2
20260507191359 51 360 4.0 15.0 0.00 0.00 0.00 64 1008.6
20260507190826 51 360 5.0 15.0 0.00 0.00 0.00 64 1008.3
20260507190335 51 360 4.0 7.0 0.00 0.00 0.00 61 1008.5
20260507185825 51 360 3.0 12.0 0.00 0.00 0.00 57 1009.0
20260507185334 52 360 5.0 12.0 0.00 0.00 0.00 55 1008.8
20260507184844 53 360 3.0 12.0 0.00 0.00 0.00 51 1008.2
20260507184400 53 360 4.0 10.0 0.00 0.00 0.00 51 1008.0
20260507183826 54 360 7.0 10.0 0.00 0.00 0.00 52 1008.2
20260507183331 54 360 5.0 9.0 0.00 0.00 0.00 51 1008.4
20260507182839 55 360 1.0 4.0 0.00 0.00 0.00 50 1008.7
20260507182329 56 201 1.0 13.0 0.00 0.00 0.00 47 1008.8
20260507181838 56 360 7.0 13.0 0.00 0.00 0.00 43 1008.8
20260507181328 55 360 7.0 10.0 0.00 0.00 0.00 44 1008.8
20260507180836 55 360 5.0 23.0 0.00 0.00 0.00 44 1008.9
20260507180323 55 360 13.0 23.0 0.00 0.00 0.00 43 1009.0
20260507175857 55 360 9.0 18.0 0.00 0.00 0.00 43 1009.1
20260507175327 55 150 11.0 21.0 0.00 0.00 0.00 42 1009.2
20260507174837 55 360 10.0 24.0 0.00 0.00 0.00 42 1009.2
20260507174325 55 360 13.0 24.0 0.00 0.00 0.00 41 1009.3
20260507173833 55 360 11.0 15.0 0.00 0.00 0.00 42 1009.3
20260507173322 54 360 7.0 17.0 0.00 0.00 0.00 41 1009.4
20260507172831 55 360 12.0 17.0 0.00 0.00 0.00 41 1009.5
20260507172322 55 360 12.0 17.0 0.00 0.00 0.00 41 1009.4
20260507171830 55 360 10.0 17.0 0.00 0.00 0.00 39 1009.5
20260507171340 55 360 7.0 12.0 0.00 0.00 0.00 41 1009.6
20260507170827 55 360 5.0 18.0 0.00 0.00 0.00 42 1009.6
20260507170338 55 360 12.0 18.0 0.00 0.00 0.00 40 1009.6
20260507165827 55 360 7.0 19.0 0.00 0.00 0.00 40 1009.6
20260507165335 55 360 13.0 19.0 0.00 0.00 0.00 40 1009.9
20260507164824 55 360 7.0 13.0 0.00 0.00 0.00 42 1009.8
20260507164329 55 360 8.0 13.0 0.00 0.00 0.00 42 1009.9
20260507163837 55 360 9.0 16.0 0.00 0.00 0.00 42 1010.1
20260507163325 55 360 10.0 18.0 0.00 0.00 0.00 41 1010.2
20260507162834 54 360 7.0 15.0 0.00 0.00 0.00 42 1010.2
20260507162342 53 360 6.0 14.0 0.00 0.00 0.00 44 1010.2
20260507161831 53 360 6.0 12.0 0.00 0.00 0.00 43 1010.2
20260507161341 53 360 8.0 12.0 0.00 0.00 0.00 44 1010.3
20260507160827 53 360 4.0 12.0 0.00 0.00 0.00 43 1010.5
20260507160337 52 360 6.0 12.0 0.00 0.00 0.00 43 1010.6
20260507155845 52 360 5.0 12.0 0.00 0.00 0.00 44 1010.7
20260507155354 52 360 6.0 12.0 0.00 0.00 0.00 44 1010.7
20260507154822 52 360 6.0 12.0 0.00 0.00 0.00 44 1010.9
20260507154332 51 360 7.0 12.0 0.00 0.00 0.00 43 1010.9
20260507153838 51 360 2.0 14.0 0.00 0.00 0.00 43 1010.9
20260507153325 51 360 6.0 13.0 0.00 0.00 0.00 46 1011.0
20260507152859 51 360 9.0 13.0 0.00 0.00 0.00 45 1011.1
20260507152345 50 360 4.0 9.0 0.00 0.00 0.00 47 1011.3
20260507151830 50 360 6.0 11.0 0.00 0.00 0.00 46 1011.4
20260507151339 50 360 6.0 11.0 0.00 0.00 0.00 46 1011.4
20260507150825 50 360 7.0 11.0 0.00 0.00 0.00 47 1011.6
20260507150334 49 360 3.0 9.0 0.00 0.00 0.00 50 1011.7
20260507145823 48 360 4.0 9.0 0.00 0.00 0.00 50 1011.7
20260507145332 48 360 4.0 9.0 0.00 0.00 0.00 51 1011.8
20260507144841 47 360 4.0 9.0 0.00 0.00 0.00 54 1011.9
20260507144329 47 360 5.0 8.0 0.00 0.00 0.00 52 1012.1
20260507143835 47 360 5.0 11.0 0.00 0.00 0.00 52 1012.1
20260507143325 47 360 10.0 12.0 0.00 0.00 0.00 52 1012.1
20260507142830 46 360 4.0 12.0 0.00 0.00 0.00 52 1012.0
20260507142337 47 360 6.0 11.0 0.00 0.00 0.00 53 1012.1
20260507141825 46 360 6.0 9.0 0.00 0.00 0.00 53 1012.1
20260507141336 46 360 6.0 9.0 0.00 0.00 0.00 53 1012.1
20260507140823 46 360 6.0 9.0 0.00 0.00 0.00 53 1012.2
20260507140331 46 360 5.0 10.0 0.00 0.00 0.00 54 1012.2
20260507135839 45 360 5.0 10.0 0.00 0.00 0.00 55 1012.3
20260507135328 45 211 4.0 7.0 0.00 0.00 0.00 58 1012.2
20260507134837 44 360 4.0 8.0 0.00 0.00 0.00 58 1012.3
20260507134327 44 360 5.0 10.0 0.00 0.00 0.00 57 1012.5
20260507133833 44 360 5.0 10.0 0.00 0.00 0.00 60 1012.6
20260507133321 44 360 6.0 8.0 0.00 0.00 0.00 61 1012.7
20260507132826 43 360 4.0 10.0 0.00 0.00 0.00 61 1012.7
20260507132334 43 360 6.0 10.0 0.00 0.00 0.00 62 1012.7
20260507131836 43 360 5.0 9.0 0.00 0.00 0.00 62 1012.6
20260507131327 43 360 6.0 9.0 0.00 0.00 0.00 62 1012.7
20260507130836 43 204 6.0 9.0 0.00 0.00 0.00 62 1012.6
20260507130327 43 360 3.0 9.0 0.00 0.00 0.00 63 1012.6
20260507125837 43 360 4.0 8.0 0.00 0.00 0.00 62 1012.6
20260507125325 43 223 2.0 7.0 0.00 0.00 0.00 65 1012.6
20260507124833 43 360 2.0 7.0 0.00 0.00 0.00 66 1012.5
20260507124324 42 360 2.0 7.0 0.00 0.00 0.00 69 1012.3
20260507123832 41 360 2.0 6.0 0.00 0.00 0.00 67 1012.2
20260507123321 41 360 3.0 7.0 0.00 0.00 0.00 68 1012.2
20260507122831 40 360 4.0 7.0 0.00 0.00 0.00 71 1012.2
20260507122322 40 360 3.0 6.0 0.00 0.00 0.00 76 1012.3
20260507121830 39 360 4.0 6.0 0.00 0.00 0.00 77 1012.2
20260507121340 39 215 2.0 5.0 0.00 0.00 0.00 78 1012.3
20260507120848 38 360 2.0 5.0 0.00 0.00 0.00 79 1012.3
20260507120356 38 360 2.0 5.0 0.00 0.00 0.00 80 1012.2
20260507115845 37 360 3.0 5.0 0.00 0.00 0.00 81 1012.2
20260507115328 37 360 3.0 6.0 0.00 0.00 0.00 81 1012.2
20260507114835 36 360 4.0 6.0 0.00 0.00 0.00 81 1012.2
20260507114346 36 360 3.0 6.0 0.00 0.00 0.00 82 1012.2
20260507113853 36 360 3.0 7.0 0.00 0.00 0.00 82 1012.3
20260507113322 36 360 5.0 7.0 0.00 0.00 0.00 82 1012.2
20260507112833 35 360 3.0 5.0 0.00 0.00 0.00 82 1012.3
20260507112324 35 360 2.0 6.0 0.00 0.00 0.00 82 1011.9
20260507111835 35 360 4.0 6.0 0.00 0.00 0.00 82 1012.0
20260507111342 35 360 4.0 6.0 0.00 0.00 0.00 82 1012.2
20260507110830 35 360 4.0 6.0 0.00 0.00 0.00 82 1012.1
20260507110341 35 360 4.0 6.0 0.00 0.00 0.00 81 1012.0
20260507105850 35 360 5.0 6.0 0.00 0.00 0.00 80 1011.9
20260507105338 35 360 3.0 6.0 0.00 0.00 0.00 79 1011.8
20260507104847 35 360 4.0 5.0 0.00 0.00 0.00 79 1011.9
20260507104359 35 360 3.0 5.0 0.00 0.00 0.00 78 1011.8
20260507103845 35 360 4.0 5.0 0.00 0.00 0.00 78 1011.8
20260507103355 35 360 3.0 6.0 0.00 0.00 0.00 77 1011.7
20260507102845 35 213 4.0 6.0 0.00 0.00 0.00 77 1011.7
20260507102334 35 360 4.0 6.0 0.00 0.00 0.00 76 1011.7
20260507101842 36 360 4.0 6.0 0.00 0.00 0.00 76 1011.8
20260507101334 36 360 3.0 5.0 0.00 0.00 0.00 76 1011.8
20260507100821 36 360 3.0 5.0 0.00 0.00 0.00 76 1011.7
20260507100332 35 214 3.0 4.0 0.00 0.00 0.00 76 1011.7
20260507095822 35 360 2.0 3.0 0.00 0.00 0.00 77 1011.7
20260507095331 35 360 2.0 4.0 0.00 0.00 0.00 77 1011.8
20260507094908 36 360 3.0 4.0 0.00 0.00 0.00 77 1011.8
20260507094356 36 360 3.0 5.0 0.00 0.00 0.00 76 1011.9
20260507093824 36 214 2.0 5.0 0.00 0.00 0.00 76 1011.9
20260507093333 36 360 2.0 4.0 0.00 0.00 0.00 76 1011.8
20260507092823 36 360 2.0 3.0 0.00 0.00 0.00 76 1011.8
20260507092355 36 213 2.0 4.0 0.00 0.00 0.00 75 1011.9
20260507091824 36 360 3.0 5.0 0.00 0.00 0.00 75 1011.9
20260507091335 36 360 3.0 5.0 0.00 0.00 0.00 75 1011.9
20260507090823 36 213 3.0 4.0 0.00 0.00 0.00 74 1011.9
20260507090333 36 360 3.0 5.0 0.00 0.00 0.00 74 1012.0
20260507085824 36 216 4.0 5.0 0.00 0.00 0.00 75 1011.9
20260507085332 36 360 4.0 5.0 0.00 0.00 0.00 75 1012.0
20260507084821 36 221 4.0 5.0 0.00 0.00 0.00 75 1012.0
20260507084332 37 360 3.0 5.0 0.00 0.00 0.00 75 1012.0
20260507083839 37 225 4.0 5.0 0.00 0.00 0.00 75 1011.9
20260507083328 37 360 3.0 5.0 0.00 0.00 0.00 74 1011.7
20260507082837 37 232 3.0 5.0 0.00 0.00 0.00 74 1011.9
20260507082346 37 230 4.0 5.0 0.00 0.00 0.00 75 1011.9
20260507081835 37 263 3.0 5.0 0.00 0.00 0.00 75 1011.8
20260507081328 36 265 3.0 5.0 0.00 0.00 0.00 75 1011.8
20260507080835 36 265 4.0 4.0 0.00 0.00 0.00 75 1011.8
20260507080326 36 265 4.0 4.0 0.00 0.00 0.00 74 1011.9
20260507075835 37 360 3.0 4.0 0.00 0.00 0.00 74 1011.9
20260507075325 37 265 2.0 3.0 0.00 0.00 0.00 73 1012.0
20260507074836 37 264 2.0 5.0 0.00 0.00 0.00 73 1011.9
20260507074348 37 264 2.0 5.0 0.00 0.00 0.00 73 1011.9
20260507073851 37 264 3.0 5.0 0.00 0.00 0.00 73 1012.0
20260507073321 37 262 1.0 4.0 0.00 0.00 0.00 73 1012.1
20260507072830 37 264 2.0 4.0 0.00 0.00 0.00 73 1012.1
20260507072406 37 264 2.0 4.0 0.00 0.00 0.00 72 1012.3
20260507071836 37 264 3.0 4.0 0.00 0.00 0.00 72 1012.3
20260507071327 38 264 3.0 4.0 0.00 0.00 0.00 71 1012.3
20260507070835 38 263 1.0 4.0 0.00 0.00 0.00 70 1012.3
20260507070326 38 263 0.0 0.0 0.00 0.00 0.00 70 1012.2
20260507065837 38 263 0.0 0.0 0.00 0.00 0.00 70 1012.2
20260507065329 38 263 0.0 3.0 0.00 0.00 0.00 70 1012.3
20260507064821 38 263 2.0 3.0 0.00 0.00 0.00 70 1012.3
20260507064331 38 360 2.0 3.0 0.00 0.00 0.00 70 1012.2
20260507063839 38 263 2.0 3.0 0.00 0.00 0.00 69 1012.5
20260507063329 39 263 1.0 3.0 0.00 0.00 0.00 68 1012.4
20260507062839 39 263 2.0 4.0 0.00 0.00 0.00 67 1012.4
20260507062330 39 263 3.0 4.0 0.00 0.00 0.00 67 1012.4
20260507061840 39 263 2.0 5.0 0.00 0.00 0.00 67 1012.4
20260507061330 39 263 1.0 6.0 0.00 0.00 0.00 67 1012.5
20260507060838 39 360 2.0 6.0 0.00 0.00 0.00 67 1012.5
20260507060329 39 360 3.0 4.0 0.00 0.00 0.00 68 1012.5
20260507055839 39 360 2.0 4.0 0.00 0.00 0.00 67 1012.4
20260507055329 39 360 2.0 4.0 0.00 0.00 0.00 66 1012.3
20260507054834 39 360 2.0 4.0 0.00 0.00 0.00 66 1012.2
20260507054325 40 360 2.0 4.0 0.00 0.00 0.00 65 1012.3
20260507053834 40 360 2.0 4.0 0.00 0.00 0.00 65 1012.3
20260507053323 40 360 1.0 3.0 0.00 0.00 0.00 65 1012.4
20260507052834 40 360 2.0 3.0 0.00 0.00 0.00 64 1012.4
20260507052324 40 360 1.0 3.0 0.00 0.00 0.00 64 1012.4
20260507051833 41 360 2.0 3.0 0.00 0.00 0.00 63 1012.4
20260507051324 41 360 2.0 3.0 0.00 0.00 0.00 63 1012.5
20260507050833 41 360 1.0 4.0 0.00 0.00 0.00 62 1012.4
20260507050343 41 360 2.0 4.0 0.00 0.00 0.00 61 1012.4
20260507045826 41 360 2.0 4.0 0.00 0.00 0.00 61 1012.5
20260507045336 42 360 2.0 4.0 0.00 0.00 0.00 61 1012.4
20260507044824 42 360 2.0 4.0 0.00 0.00 0.00 60 1012.4
20260507044335 42 360 0.0 0.0 0.00 0.00 0.00 60 1012.4
20260507043909 42 360 0.0 3.0 0.00 0.00 0.00 59 1012.4
20260507043358 42 360 0.0 3.0 0.00 0.00 0.00 59 1012.4
20260507042826 43 360 2.0 3.0 0.00 0.00 0.00 58 1012.4
20260507042335 43 9 1.0 3.0 0.00 0.00 0.00 58 1012.4
20260507041846 43 9 1.0 5.0 0.00 0.00 0.00 57 1012.3
20260507041350 43 9 1.0 5.0 0.00 0.00 0.00 57 1012.3
20260507040837 43 5 3.0 5.0 0.00 0.00 0.00 56 1012.3
20260507040326 43 360 2.0 5.0 0.00 0.00 0.00 56 1012.3
20260507035833 44 9 1.0 5.0 0.00 0.00 0.00 56 1012.5
20260507035341 44 9 2.0 6.0 0.00 0.00 0.00 55 1012.5
20260507034829 44 360 2.0 6.0 0.00 0.00 0.00 55 1012.4
20260507034340 44 360 2.0 9.0 0.00 0.00 0.00 55 1012.4
20260507033848 44 360 2.0 9.0 0.00 0.00 0.00 54 1012.6
20260507033337 44 360 4.0 7.0 0.00 0.00 0.00 54 1012.6
20260507032825 45 360 3.0 8.0 0.00 0.00 0.00 54 1012.7
20260507032335 45 360 3.0 8.0 0.00 0.00 0.00 53 1012.7
20260507031824 45 360 3.0 9.0 0.00 0.00 0.00 53 1012.7
20260507031333 45 360 4.0 9.0 0.00 0.00 0.00 52 1012.6
20260507030838 45 360 3.0 11.0 0.00 0.00 0.00 52 1012.6
20260507030347 45 16 6.0 11.0 0.00 0.00 0.00 51 1012.6
20260507025835 45 360 6.0 9.0 0.00 0.00 0.00 51 1012.5
20260507025324 45 360 4.0 10.0 0.00 0.00 0.00 51 1012.5
20260507024832 45 360 7.0 10.0 0.00 0.00 0.00 50 1012.6
20260507024340 46 360 5.0 10.0 0.00 0.00 0.00 50 1012.5
20260507023847 46 360 4.0 12.0 0.00 0.00 0.00 50 1012.3
20260507023357 46 360 5.0 12.0 0.00 0.00 0.00 50 1012.2
20260507022845 46 360 4.0 9.0 0.00 0.00 0.00 50 1012.1
20260507022333 46 360 4.0 10.0 0.00 0.00 0.00 49 1012.1
20260507021841 46 360 6.0 12.0 0.00 0.00 0.00 49 1012.1
20260507021332 46 240 5.0 12.0 0.00 0.00 0.00 49 1012.0
20260507020822 46 360 4.0 9.0 0.00 0.00 0.00 49 1011.9
20260507020358 46 360 4.0 9.0 0.00 0.00 0.00 49 1011.9
20260507015825 46 360 5.0 12.0 0.00 0.00 0.00 48 1012.0
20260507015330 47 360 6.0 13.0 0.00 0.00 0.00 48 1011.9
20260507014839 47 360 5.0 13.0 0.00 0.00 0.00 48 1011.9
20260507014329 47 241 6.0 12.0 0.00 0.00 0.00 48 1011.9
20260507013835 47 360 5.0 12.0 0.00 0.00 0.00 48 1011.8
20260507013324 47 360 4.0 11.0 0.00 0.00 0.00 48 1011.7
20260507012901 47 360 7.0 11.0 0.00 0.00 0.00 47 1011.7
20260507012328 47 360 6.0 10.0 0.00 0.00 0.00 48 1011.7
20260507011903 48 360 3.0 12.0 0.00 0.00 0.00 48 1011.7
20260507011331 48 360 6.0 12.0 0.00 0.00 0.00 47 1011.6
20260507010836 48 360 5.0 11.0 0.00 0.00 0.00 46 1011.5
20260507010325 48 360 7.0 14.0 0.00 0.00 0.00 46 1011.4
20260507005901 49 360 5.0 14.0 0.00 0.00 0.00 46 1011.4
20260507005329 49 360 6.0 13.0 0.00 0.00 0.00 46 1011.4
20260507004838 49 261 5.0 17.0 0.00 0.00 0.00 46 1011.3
20260507004327 49 360 9.0 17.0 0.00 0.00 0.00 45 1011.3
20260507003836 50 360 7.0 15.0 0.00 0.00 0.00 45 1011.3
20260507003324 50 360 9.0 17.0 0.00 0.00 0.00 44 1011.3
20260507002833 50 360 9.0 14.0 0.00 0.00 0.00 44 1011.2
20260507002341 50 360 8.0 18.0 0.00 0.00 0.00 45 1011.0
20260507001829 51 360 7.0 19.0 0.00 0.00 0.00 44 1011.0
20260507001339 51 360 6.0 19.0 0.00 0.00 0.00 44 1010.9
20260507000825 51 360 6.0 16.0 0.00 0.00 0.00 44 1010.8
20260507000333 51 360 8.0 16.0 0.00 0.00 0.00 44 1010.8
20260506235823 51 360 5.0 20.0 0.00 0.00 0.00 45 1010.8
20260506235331 51 360 8.0 20.0 0.00 0.00 0.00 44 1010.8
20260506234841 51 360 6.0 15.0 0.00 0.00 0.00 44 1010.6
20260506234410 52 360 9.0 15.0 0.00 0.00 0.00 43 1010.5
20260506233856 52 360 6.0 15.0 0.00 0.00 0.00 44 1010.6
20260506233322 52 360 6.0 15.0 0.00 0.00 0.00 43 1010.6
20260506232831 52 360 5.0 12.0 0.00 0.00 0.00 43 1010.5
20260506232322 52 360 3.0 15.0 0.00 0.00 0.00 43 1010.5
20260506231859 52 360 9.0 15.0 0.00 0.00 0.00 42 1010.6
20260506231329 52 360 5.0 14.0 0.00 0.00 0.00 43 1010.5
20260506230838 52 360 7.0 14.0 0.00 0.00 0.00 42 1010.5
20260506230328 52 360 7.0 18.0 0.00 0.00 0.00 43 1010.4
20260506225838 52 360 8.0 18.0 0.00 0.00 0.00 42 1010.4
20260506225348 52 360 9.0 17.0 0.00 0.00 0.00 41 1010.4
20260506224858 53 360 8.0 13.0 0.00 0.00 0.00 42 1010.3
20260506224327 53 360 6.0 15.0 0.00 0.00 0.00 42 1010.4
20260506223836 53 360 8.0 15.0 0.00 0.00 0.00 42 1010.3
20260506223325 53 360 6.0 11.0 0.00 0.00 0.00 43 1010.2
20260506222834 53 360 3.0 14.0 0.00 0.00 0.00 42 1010.1
20260506222321 53 360 5.0 14.0 0.00 0.00 0.00 42 1010.1
20260506221832 53 260 5.0 18.0 0.00 0.00 0.00 41 1010.2
20260506221324 53 360 7.0 14.0 0.00 0.00 0.00 41 1010.1
20260506220827 53 360 4.0 14.0 0.00 0.00 0.00 42 1010.0
20260506220336 53 360 5.0 14.0 0.00 0.00 0.00 41 1010.0
20260506215824 53 360 6.0 12.0 0.00 0.00 0.00 41 1009.9
20260506215333 54 360 6.0 15.0 0.00 0.00 0.00 41 1009.8
20260506214823 54 360 6.0 15.0 0.00 0.00 0.00 40 1010.0
20260506214334 54 360 9.0 17.0 0.00 0.00 0.00 41 1009.9
20260506213822 53 360 10.0 17.0 0.00 0.00 0.00 40 1009.8
20260506213332 54 360 7.0 15.0 0.00 0.00 0.00 40 1009.9
20260506212822 54 360 6.0 15.0 0.00 0.00 0.00 41 1009.8
20260506212331 55 360 10.0 17.0 0.00 0.00 0.00 41 1009.7
20260506211840 55 360 8.0 17.0 0.00 0.00 0.00 41 1009.7
20260506211351 54 360 7.0 16.0 0.00 0.00 0.00 40 1009.7
20260506210839 54 360 7.0 17.0 0.00 0.00 0.00 40 1009.7
20260506210327 55 360 6.0 17.0 0.00 0.00 0.00 40 1009.7
20260506205835 55 360 7.0 14.0 0.00 0.00 0.00 40 1009.7
20260506205321 54 360 8.0 14.0 0.00 0.00 0.00 39 1009.7
20260506204831 55 360 8.0 16.0 0.00 0.00 0.00 39 1009.7
20260506204342 54 360 8.0 16.0 0.00 0.00 0.00 39 1009.7
20260506203831 55 360 9.0 15.0 0.00 0.00 0.00 38 1009.7
20260506203337 54 360 9.0 15.0 0.00 0.00 0.00 38 1009.7
20260506202823 54 360 7.0 18.0 0.00 0.00 0.00 38 1009.9
20260506202330 54 360 9.0 18.0 0.00 0.00 0.00 39 1009.9
20260506201842 54 231 8.0 18.0 0.00 0.00 0.00 39 1009.9